Regional Weather Roundup
Issued by NWS

Home | Current Version | Previous Version | Text Only | Print | Product List | Glossary Off
Versions: 1 2 3 4 5 6 7 8 9 10 11 12 13 14 15 16 17 18 19 20 21 22 23 24 25 26 27 28 29 30 31 32 33 34 35 36 37 38 39 40 41 42 43 44 45 46 47 48 49 50

000
ASUS43 KIND 301309
RWRIN

WEATHER ROUNDUP FOR INDIANA
NATIONAL WEATHER SERVICE INDIANAPOLIS IN
900 AM EDT SAT AUG 30 2014

NOTE: "FAIR" INDICATES FEW OR NO CLOUDS BELOW 12,000 FEET WITH NO
SIGNIFICANT WEATHER AND/OR OBSTRUCTIONS TO VISIBILITY.

* - STATION DOES NOT REPORT WEATHER SUCH AS PRECIPITATION OR FOG.

+ - STATION NOT QUALITY CONTROLLED BY THE NATIONAL WEATHER SERVICE.
    USE DATA WITH CAUTION...ESPECIALLY DEWPOINT AND RELATIVE
    HUMIDITY OBSERVATIONS.

INZ001>003-010>013-019-020-301400-
NORTHWEST INDIANA

CITY           SKY/WX    TMP DP  RH WIND       PRES   REMARKS
GARY /AIRPORT/ PTSUNNY   75  70  83 S6        29.89R
KNOX *+        CLOUDY    72  67  83 S9G16     29.91F
LA PORTE +     CLOUDY    71  69  93 SW9       29.91S
MICHIGAN CITY+ PTSUNNY   72  66  83 S8G17     29.90S
MONTICELLO +   CLOUDY    72  68  89 S9        29.94S
RENSSELAER +   CLOUDY    72  70  94 S9        29.93R
VALPARAISO     PTSUNNY   73  69  87 SW12      29.91R

$$

LMZ046-743>745-301400-
SOUTHERN LAKE MICHIGAN

STATION/POSITION TIME  TEMP WIND        PRES
                       AIR  DIR/SP/G
                 (UTC) (F)  (DEG/KT/KT) (MB)
MICHIGAN CITY    1300   73  170/ 14/ 20   N/A

$$

INZ004-005-014>016-021>024-301400-
NORTH CENTRAL INDIANA

CITY           SKY/WX    TMP DP  RH WIND       PRES   REMARKS
GOSHEN         CLOUDY    74  67  78 S10       29.93F
LOGANSPORT +   CLOUDY    72  64  78 S9        29.96S
PERU/GRISSOM   CLOUDY    72  71  96 S12       29.96S
ROCHESTER +    CLOUDY    75  68  78 S12       29.95S
SOUTH BEND     CLOUDY    73  69  87 S10       29.92S
WARSAW +       CLOUDY    72  66  83 S7        29.94F

$$

INZ006>009-017-018-025>027-301400-
NORTHEAST INDIANA

CITY           SKY/WX    TMP DP  RH WIND       PRES   REMARKS
ANGOLA *+      MOSUNNY   72  64  78 SW7       29.96S
AUBURN +       PTSUNNY   73  63  68 S8        29.97F
FORT WAYNE     CLOUDY    72  64  76 S10       29.98S
HUNTINGTON +   PTSUNNY   72  66  81 S6        29.97S

$$

INZ028-029-035-036-043>045-051>053-301400-
WEST CENTRAL INDIANA

CITY           SKY/WX    TMP DP  RH WIND       PRES   REMARKS
GREENCASTLE +  CLOUDY    70  68  94 S6        30.01S
LAFAYETTE      CLOUDY    72  68  87 VRB7      29.95R
TERRE HAUTE    CLOUDY    73  68  84 S9        29.99S

$$

INZ030>032-037>040-046>048-054>057-064-065-301400-
CENTRAL INDIANA

CITY           SKY/WX    TMP DP  RH WIND       PRES   REMARKS
ANDERSON       CLOUDY    72  63  73 S12       30.03
CP ATTERBURY + LGT RAIN  70  64  83 CALM      30.04S
FRANKFORT +    CLOUDY    73  68  84 S6        29.99S
GREENWOOD *+   CLOUDY    72  70  94 SW8G16    30.03R
INDIANAPOLIS   RAIN      71  67  87 S14G21    30.00R FOG
-EAGLE CREEK   LGT RAIN  73  65  75 S8        30.00R
KOKOMO *+      CLOUDY    72  64  78 S13       29.97F
MARION +       PTSUNNY   71  64  76 S9        30.00S
MT COMFORT *+  CLOUDY    70  70 100 SW14G21   30.04R
SHELBYVILLE    LGT RAIN  71  66  84 S7        30.04R
ZIONSVILLE +   CLOUDY    74  65  73 S14       30.01R

$$

INZ033-034-041-042-049-050-058-059-301400-
EAST CENTRAL INDIANA

CITY           SKY/WX    TMP DP  RH WIND       PRES   REMARKS
MUNCIE         CLOUDY    73  63  70 S8        30.01S

$$

INZ060-061-067>069-081>083-085>088-301400-
SOUTHWEST INDIANA

CITY           SKY/WX    TMP DP  RH WIND       PRES   REMARKS
EVANSVILLE     LGT RAIN  73  70  90 CALM      30.01F FOG
WASHINGTON +   CLOUDY    71  70  98 S8        30.02R

$$

INZ062-063-066-070>080-084-089>092-301400-
SOUTH CENTRAL AND SOUTHEAST INDIANA

CITY           SKY/WX    TMP DP  RH WIND       PRES   REMARKS
BEDFORD +      CLOUDY    70  64  83 SE5       30.05R
BLOOMINGTON    LGT RAIN  71  68  90 S5        30.03F

$$



USA.gov is the U.S. government's official web portal to all federal, state and local government web resources and services.